Change the Weather History Date:

Tuesday, April 9, 2013

  Actual Average Record
Temperature  
Mean Temperature 75 °F 72 °F  
Max Temperature 87 °F 82 °F 88 °F (1953)
Min Temperature 62 °F 63 °F 41 °F (1971)
Degree Days  
Heating Degree Days 0 0  
Month to date heating degree days 0 0  
Since 1 July heating degree days 182 256  
Cooling Degree Days 10 7  
Month to date cooling degree days 68 63  
Year to date cooling degree days 459 430  
Growing Degree Days 24 (Base 50)    
Moisture  
Dew Point 63 °F    
Average Humidity 68    
Maximum Humidity 93    
Minimum Humidity 43    
Precipitation  
Precipitation T in 0.08 in 0.95 in (1990)
Month to date precipitation 0.91 0.73  
Year to date precipitation 3.35 7.06  
Snow  
Snow 0.00 in - - ()
Month to date snowfall 0.0  
Since 1 July snowfall 0.0  
Snow Depth 0.00 in    
Sea Level Pressure  
Sea Level Pressure 30.09 in    
Wind  
Wind Speed 7 mph (East)    
Max Wind Speed 17 mph    
Max Gust Speed 20 mph    
Visibility 10 miles    
Events      
T = Trace of Precipitation, MM = Missing Value Source: NWS Daily Summary

Daily Weather History Graph

Daily Weather History Graph

Search for Another Location

Airport or City:

Trip Planner

Search our weather history database for the weather conditions in past years. The results will help you decide how hot, cold, wet, or windy it might be!

Date:

Astronomy

Apr. 09, 2013 Rise Set
Actual Time 7:09 AM EDT 7:47 PM EDT
Civil Twilight 6:46 AM EDT 8:11 PM EDT
Nautical Twilight 6:18 AM EDT 8:38 PM EDT
Astronomical Twilight 5:50 AM EDT 9:06 PM EDT
Moon 6:28 AM EDT (4/9) 7:21 PM EDT (4/9)
Length of Visible Light 13h 25m
Length of Day
12h 38m
Waning Crescent, 1% of the Moon is Illuminated
Apr 9
Waning Crescent
Apr 10
New
Apr 18
First Quarter
Apr 25
Full
May 2
Last Quarter

Hourly Weather History & Observations

Time (EDT) Temp. Heat Index Dew Point Humidity Pressure Visibility Wind Dir Wind Speed Gust Speed Precip Events Conditions
12:53 AM 70.0 °F - 59.0 °F 68% 30.12 in 10.0 mi East 6.9 mph - N/A   Clear
1:53 AM 69.1 °F - 57.9 °F 68% 30.10 in 10.0 mi East 5.8 mph - N/A   Clear
2:53 AM 66.9 °F - 59.0 °F 76% 30.07 in 10.0 mi East 3.5 mph - N/A   Clear
3:53 AM 66.0 °F - 59.0 °F 78% 30.06 in 10.0 mi ENE 4.6 mph - N/A   Clear
4:53 AM 64.0 °F - 59.0 °F 84% 30.06 in 10.0 mi NE 5.8 mph - N/A   Clear
5:53 AM 63.0 °F - 59.0 °F 87% 30.07 in 10.0 mi East 3.5 mph - N/A   Clear
6:53 AM 63.0 °F - 60.1 °F 90% 30.07 in 10.0 mi East 5.8 mph - N/A   Clear
7:53 AM 64.9 °F - 61.0 °F 87% 30.09 in 10.0 mi ENE 5.8 mph - N/A   Clear
8:53 AM 70.0 °F - 63.0 °F 78% 30.11 in 10.0 mi East 5.8 mph - N/A   Clear
9:53 AM 75.0 °F - 64.0 °F 69% 30.12 in 10.0 mi ESE 9.2 mph - N/A   Clear
10:53 AM 79.0 °F - 64.9 °F 62% 30.13 in 10.0 mi SE 12.7 mph - N/A   Mostly Cloudy
11:33 AM 80.6 °F 82.3 °F 64.4 °F 58% 30.12 in 1.8 mi ESE 12.7 mph - N/A   Haze
11:40 AM 82.4 °F 83.9 °F 64.4 °F 54% 30.13 in 10.0 mi SE 8.1 mph - N/A   Partly Cloudy
11:53 AM 81.0 °F 82.5 °F 64.0 °F 56% 30.12 in 10.0 mi SSE 6.9 mph - N/A   Partly Cloudy
12:53 PM 84.0 °F 83.8 °F 59.0 °F 43% 30.11 in 10.0 mi East 10.4 mph - N/A   Scattered Clouds
1:53 PM 84.0 °F 83.8 °F 59.0 °F 43% 30.09 in 10.0 mi ESE 9.2 mph - N/A   Mostly Cloudy
2:53 PM 84.9 °F 84.4 °F 59.0 °F 41% 30.07 in 10.0 mi Calm Calm - N/A   Mostly Cloudy
3:53 PM 82.9 °F 84.6 °F 64.9 °F 54% 30.05 in 10.0 mi SW 13.8 mph - N/A   Mostly Cloudy
4:53 PM 79.0 °F - 66.9 °F 66% 30.06 in 10.0 mi West 10.4 mph - N/A   Overcast
5:53 PM 77.0 °F - 66.9 °F 71% 30.06 in 10.0 mi West 5.8 mph - N/A   Mostly Cloudy
6:53 PM 78.1 °F - 68.0 °F 71% 30.06 in 10.0 mi WSW 3.5 mph - N/A   Mostly Cloudy
7:53 PM 77.0 °F - 68.0 °F 74% 30.07 in 10.0 mi Calm Calm - N/A   Overcast
8:53 PM 75.9 °F - 64.9 °F 69% 30.07 in 10.0 mi East 11.5 mph - 0.00 in   Overcast
9:53 PM 75.0 °F - 64.0 °F 69% 30.09 in 10.0 mi East 12.7 mph - N/A   Overcast
10:53 PM 73.0 °F - 63.0 °F 71% 30.10 in 10.0 mi East 11.5 mph - N/A   Mostly Cloudy
11:53 PM 72.0 °F - 63.0 °F 73% 30.10 in 10.0 mi East 11.5 mph - N/A   Scattered Clouds